Location: Mentone
(34.5413°N, 85.5351°W)
Time: 00:29:18
(UTC-05:00)

Uosat F - Visible Passes

Search period start: 01 November 2014 00:00
Search period end: 10 November 2014 23:00
Orbit: 752 x 761 km, 98.7° (Epoch: 31 October)

Date Brightness Start Highest point End Pass type
(mag) Time Alt. Az. Time Alt. Az. Time Alt. Az.
01 Nov 12.2 04:44:22 10° NNE 04:49:10 43° E 04:53:56 10° S visible
01 Nov 12.4 06:24:08 10° NNW 06:27:35 19° WNW 06:31:01 10° WSW visible
02 Nov 13.7 03:06:34 10° NE 03:09:47 17° E 03:12:59 10° SE visible
02 Nov 11.3 04:43:57 10° N 04:48:45 45° WNW 04:53:31 10° SW visible
03 Nov 11.3 04:04:38 10° NNE 04:09:41 71° ESE 04:14:41 10° S visible
04 Nov 13.0 03:26:08 10° NE 03:30:25 27° E 03:34:39 10° SSE visible
04 Nov 11.9 05:04:49 10° N 05:09:05 29° WNW 05:13:21 10° SW visible
05 Nov 14.2 02:50:40 10° E 02:50:55 10° E 02:51:10 10° E visible
05 Nov 10.9 04:25:06 10° N 04:30:08 72° WNW 04:35:08 10° SSW visible
06 Nov 12.1 03:46:09 10° NNE 03:50:58 44° E 03:55:45 10° S visible
06 Nov 12.4 05:25:59 10° NNW 05:29:22 18° WNW 05:32:44 10° WSW visible
07 Nov 13.7 03:08:18 10° NE 03:11:36 17° E 03:14:52 10° SE visible
07 Nov 11.3 04:45:46 10° N 04:50:32 44° WNW 04:55:16 10° SW visible
08 Nov 11.2 04:06:26 10° NNE 04:11:28 73° ESE 04:16:28 10° S visible
09 Nov 12.9 03:27:54 10° NE 03:32:12 28° E 03:36:28 10° SSE visible
09 Nov 11.9 05:06:38 10° NNW 05:10:52 28° WNW 05:15:04 10° SW visible
10 Nov 14.2 02:51:53 10° E 02:52:43 10° E 02:53:33 10° E visible
10 Nov 10.9 04:26:54 10° N 04:31:55 70° WNW 04:36:54 10° SSW visible
